,,,PA_Meas_PMT16A,,PR_Meas_QMR101_102,,RH_Meas_QMH101,,SR_Meas_QMS101,,TA_Meas_QMH101,,GenWind,,GenWind,
date,time,status,PA,status,PR,status,RH,status,SR,status,TA,status,DirAvg,status,SpdAvg,
2012-07-05, 00:00:04,VALID,1006.77,VALID,0,VALID,104,VALID,0,VALID,24.2007,VALID,189,VALID,0,
2012-07-05, 00:01:04,VALID,1006.77,VALID,0,VALID,104,VALID,0.112112,VALID,24.1793,VALID,189,VALID,0,
2012-07-05, 00:02:04,VALID,1006.74,VALID,0,VALID,104,VALID,0,VALID,24.2007,VALID,189,VALID,0,
2012-07-05, 00:03:04,VALID,1006.75,VALID,0,VALID,104,VALID,0.112112,VALID,24.1812,VALID,189,VALID,0,
2012-07-05, 00:04:04,VALID,1006.78,VALID,0,VALID,104,VALID,0.112112,VALID,24.1404,VALID,189,VALID,0,
2012-07-05, 00:05:04,VALID,1006.79,VALID,0,VALID,104,VALID,0,VALID,24.1209,VALID,189,VALID,0,
2012-07-05, 00:06:04,VALID,1006.76,VALID,0,VALID,104,VALID,0,VALID,24.1422,VALID,189,VALID,0,
2012-07-05, 00:07:04,VALID,1006.77,VALID,0,VALID,104,VALID,0,VALID,24.1422,VALID,189,VALID,0,
2012-07-05, 00:08:04,VALID,1006.78,VALID,0,VALID,104,VALID,0.112112,VALID,24.1227,VALID,189,VALID,0.394531,
2012-07-05, 00:09:04,VALID,1006.79,VALID,0,VALID,104,VALID,0,VALID,24.1227,VALID,189,VALID,0.271484,
2012-07-05, 00:10:04,VALID,1006.79,VALID,0,VALID,104,VALID,0,VALID,24.1422,VALID,189,VALID,0.0210938,
2012-07-05, 00:11:04,VALID,1006.77,VALID,0,VALID,104,VALID,0,VALID,24.1227,VALID,189,VALID,0.122266,
2012-07-05, 00:12:04,VALID,1006.76,VALID,0,VALID,104,VALID,0.112112,VALID,24.0624,VALID,189,VALID,0.216406,
2012-07-05, 00:13:04,VALID,1006.77,VALID,0,VALID,104,VALID,0,VALID,24.0837,VALID,189,VALID,0.223828,
2012-07-05, 00:14:04,VALID,1006.76,VALID,0,VALID,104,VALID,0,VALID,24.0429,VALID,189,VALID,0.0625,
2012-07-05, 00:15:04,VALID,1006.75,VALID,0,VALID,104,VALID,0,VALID,24.0643,VALID,189,VALID,0,
2012-07-05, 00:16:04,VALID,1006.74,VALID,0,VALID,104,VALID,0,VALID,24.0643,VALID,189,VALID,0,
2012-07-05, 00:17:04,VALID,1006.73,VALID,0,VALID,104,VALID,0,VALID,24.0448,VALID,189,VALID,0,
2012-07-05, 00:18:04,VALID,1006.7,VALID,0,VALID,104,VALID,0,VALID,24.0253,VALID,189,VALID,0,
2012-07-05, 00:19:04,VALID,1006.69,VALID,0,VALID,104,VALID,0,VALID,23.9845,VALID,189,VALID,0,
2012-07-05, 00:20:04,VALID,1006.73,VALID,0,VALID,104,VALID,0,VALID,23.9863,VALID,189,VALID,0,
2012-07-05, 00:21:04,VALID,1006.7,VALID,0,VALID,104,VALID,0,VALID,23.9455,VALID,189,VALID,0,
2012-07-05, 00:22:04,VALID,1006.72,VALID,0,VALID,104,VALID,0,VALID,23.9668,VALID,189,VALID,0,
2012-07-05, 00:23:04,VALID,1006.71,VALID,0,VALID,104,VALID,0,VALID,23.9668,VALID,189,VALID,0.205469,
2012-07-05, 00:24:04,VALID,1006.71,VALID,0,VALID,104,VALID,0,VALID,23.926,VALID,189,VALID,0,
2012-07-05, 00:25:04,VALID,1006.72,VALID,0,VALID,104,VALID,0,VALID,23.926,VALID,189,VALID,0,
2012-07-05, 00:26:04,VALID,1006.72,VALID,0,VALID,104,VALID,0,VALID,23.9473,VALID,189,VALID,0,
2012-07-05, 00:27:04,VALID,1006.71,VALID,0,VALID,104,VALID,0,VALID,23.9278,VALID,189,VALID,0,
2012-07-05, 00:28:04,VALID,1006.72,VALID,0,VALID,104,VALID,0,VALID,23.9065,VALID,189,VALID,0,
2012-07-05, 00:29:04,VALID,1006.73,VALID,0,VALID,104,VALID,0,VALID,23.9278,VALID,189,VALID,0,
2012-07-05, 00:30:04,VALID,1006.74,VALID,0,VALID,104,VALID,0.112112,VALID,23.9084,VALID,189,VALID,0,
2012-07-05, 00:31:04,VALID,1006.73,VALID,0,VALID,104,VALID,0,VALID,23.9065,VALID,189,VALID,0,
2012-07-05, 00:32:04,VALID,1006.76,VALID,0,VALID,104,VALID,0,VALID,23.9084,VALID,189,VALID,0,
2012-07-05, 00:33:04,VALID,1006.78,VALID,0,VALID,104,VALID,0,VALID,23.9084,VALID,189,VALID,0,
2012-07-05, 00:34:04,VALID,1006.77,VALID,0,VALID,104,VALID,0,VALID,23.8889,VALID,189,VALID,0,
2012-07-05, 00:35:04,VALID,1006.79,VALID,0,VALID,104,VALID,0,VALID,23.8889,VALID,189,VALID,0,
2012-07-05, 00:36:04,VALID,1006.81,VALID,0,VALID,104,VALID,0.112112,VALID,23.8694,VALID,189,VALID,0,
2012-07-05, 00:37:04,VALID,1006.82,VALID,0,VALID,104,VALID,0,VALID,23.8694,VALID,189,VALID,0.238281,
2012-07-05, 00:38:04,VALID,1006.84,VALID,0,VALID,104,VALID,0,VALID,23.8871,VALID,189,VALID,0.124219,
2012-07-05, 00:39:04,VALID,1006.86,VALID,0,VALID,104,VALID,0,VALID,23.9278,VALID,189,VALID,0.000390625,
2012-07-05, 00:40:04,VALID,1006.88,VALID,0,VALID,104,VALID,0,VALID,23.9278,VALID,189,VALID,0.247266,
2012-07-05, 00:41:04,VALID,1006.9,VALID,0,VALID,104,VALID,0,VALID,23.9278,VALID,189,VALID,0.446484,
2012-07-05, 00:42:04,VALID,1006.9,VALID,0,VALID,104,VALID,0,VALID,23.9473,VALID,189,VALID,0.269531,
2012-07-05, 00:43:04,VALID,1006.93,VALID,0,VALID,104,VALID,0,VALID,23.9668,VALID,189,VALID,0.185547,
2012-07-05, 00:44:04,VALID,1006.96,VALID,0,VALID,104,VALID,0,VALID,23.9863,VALID,189,VALID,0.053125,
2012-07-05, 00:45:04,VALID,1006.95,VALID,0,VALID,104,VALID,0,VALID,23.9668,VALID,189,VALID,0.117188,
2012-07-05, 00:46:04,VALID,1006.94,VALID,0,VALID,104,VALID,0,VALID,23.9473,VALID,189,VALID,0,
2012-07-05, 00:47:04,VALID,1006.95,VALID,0,VALID,104,VALID,0,VALID,23.9473,VALID,189,VALID,0,
2012-07-05, 00:48:04,VALID,1006.94,VALID,0,VALID,104,VALID,0,VALID,23.9473,VALID,189,VALID,0.0015625,
2012-07-05, 00:49:04,VALID,1006.97,VALID,0,VALID,104,VALID,0,VALID,23.9668,VALID,189,VALID,0.259766,
2012-07-05, 00:50:04,VALID,1006.96,VALID,0,VALID,104,VALID,0,VALID,24.0058,VALID,189,VALID,0,
2012-07-05, 00:51:04,VALID,1006.96,VALID,0,VALID,104,VALID,0,VALID,23.965,VALID,189,VALID,0,
2012-07-05, 00:52:04,VALID,1006.98,VALID,0,VALID,104,VALID,0,VALID,23.9668,VALID,189,VALID,0,
2012-07-05, 00:53:04,VALID,1006.99,VALID,0,VALID,104,VALID,0,VALID,23.9863,VALID,189,VALID,0.0394531,
2012-07-05, 00:54:04,VALID,1006.98,VALID,0,VALID,104,VALID,0,VALID,23.9863,VALID,189,VALID,0,
2012-07-05, 00:55:04,VALID,1007,VALID,0,VALID,104,VALID,0,VALID,24.0058,VALID,189,VALID,0.00273437,
2012-07-05, 00:56:04,VALID,1006.95,VALID,0,VALID,104,VALID,0,VALID,24.0448,VALID,189,VALID,0.363672,
2012-07-05, 00:57:04,VALID,1006.98,VALID,0,VALID,104,VALID,0,VALID,24.0429,VALID,189,VALID,0.00351562,
2012-07-05, 00:58:04,VALID,1006.96,VALID,0,VALID,104,VALID,0,VALID,24.0643,VALID,189,VALID,0,
2012-07-05, 00:59:04,VALID,1006.99,VALID,0,VALID,104,VALID,0,VALID,24.0643,VALID,189,VALID,0,
2012-07-05, 01:00:04,VALID,1006.98,VALID,0,VALID,104,VALID,0,VALID,24.0837,VALID,189,VALID,0.141797,
2012-07-05, 01:01:04,VALID,1007.02,VALID,0,VALID,104,VALID,0.112112,VALID,24.0837,VALID,189,VALID,0.0988281,
2012-07-05, 01:02:04,VALID,1007.02,VALID,0,VALID,104,VALID,0,VALID,24.1032,VALID,189,VALID,0,
2012-07-05, 01:03:04,VALID,1007.02,VALID,0,VALID,104,VALID,0,VALID,24.1032,VALID,189,VALID,0,
2012-07-05, 01:04:04,VALID,1007.06,VALID,0,VALID,104,VALID,0.112112,VALID,24.0624,VALID,189,VALID,0.211328,
2012-07-05, 01:05:04,VALID,1007.02,VALID,0,VALID,104,VALID,0,VALID,24.0643,VALID,189,VALID,0.0863281,
2012-07-05, 01:06:04,VALID,1007.04,VALID,0,VALID,104,VALID,0,VALID,24.0448,VALID,189,VALID,0.0644531,
2012-07-05, 01:07:04,VALID,1007,VALID,0,VALID,104,VALID,0.112112,VALID,24.0448,VALID,189,VALID,0.429688,
2012-07-05, 01:08:04,VALID,1007.02,VALID,0,VALID,104,VALID,0,VALID,24.1032,VALID,317,VALID,1.31172,
2012-07-05, 01:09:04,VALID,1007.04,VALID,0,VALID,104,VALID,0,VALID,24.1599,VALID,234,VALID,0.346094,
2012-07-05, 01:10:04,VALID,1007.01,VALID,0,VALID,104,VALID,0,VALID,24.1599,VALID,193,VALID,0.4625,
2012-07-05, 01:11:04,VALID,1007.01,VALID,0,VALID,104,VALID,0.112112,VALID,24.1617,VALID,193,VALID,0.194922,
2012-07-05, 01:12:04,VALID,1006.98,VALID,0,VALID,104,VALID,0,VALID,24.1793,VALID,193,VALID,0.0109375,
2012-07-05, 01:13:04,VALID,1006.97,VALID,0,VALID,104,VALID,0.112112,VALID,24.2007,VALID,193,VALID,0.00195313,
2012-07-05, 01:14:04,VALID,1006.96,VALID,0,VALID,104,VALID,0,VALID,24.1617,VALID,193,VALID,0.166016,
2012-07-05, 01:15:04,VALID,1006.92,VALID,0,VALID,104,VALID,0,VALID,24.1617,VALID,193,VALID,0.324219,
2012-07-05, 01:16:04,VALID,1006.9,VALID,0,VALID,104,VALID,0,VALID,24.1404,VALID,193,VALID,0.190234,
2012-07-05, 01:17:04,VALID,1006.91,VALID,0,VALID,104,VALID,0,VALID,24.1617,VALID,193,VALID,0,
2012-07-05, 01:18:04,VALID,1006.92,VALID,0,VALID,104,VALID,0.112112,VALID,24.1209,VALID,193,VALID,0,
2012-07-05, 01:19:04,VALID,1006.93,VALID,0,VALID,104,VALID,0.112112,VALID,24.1227,VALID,193,VALID,0,
2012-07-05, 01:20:04,VALID,1006.91,VALID,0,VALID,104,VALID,0.112112,VALID,24.1227,VALID,193,VALID,0,
2012-07-05, 01:21:04,VALID,1006.94,VALID,0,VALID,104,VALID,0.112112,VALID,24.1032,VALID,193,VALID,0.0585938,
2012-07-05, 01:22:04,VALID,1006.92,VALID,0,VALID,104,VALID,0,VALID,24.1227,VALID,193,VALID,0.0605469,
2012-07-05, 01:23:04,VALID,1006.91,VALID,0,VALID,104,VALID,0.112112,VALID,24.1014,VALID,193,VALID,0.162891,
2012-07-05, 01:24:04,VALID,1006.9,VALID,0,VALID,104,VALID,0.112112,VALID,24.1014,VALID,193,VALID,0.233203,
2012-07-05, 01:25:04,VALID,1006.89,VALID,0,VALID,104,VALID,0.112112,VALID,24.1227,VALID,193,VALID,0.00585938,
2012-07-05, 01:26:04,VALID,1006.85,VALID,0,VALID,104,VALID,0,VALID,24.1209,VALID,193,VALID,0.155859,
2012-07-05, 01:27:04,VALID,1006.84,VALID,0,VALID,104,VALID,0,VALID,24.1422,VALID,193,VALID,0.059375,
2012-07-05, 01:28:04,VALID,1006.83,VALID,0,VALID,104,VALID,0.112112,VALID,24.0819,VALID,193,VALID,0.0015625,
2012-07-05, 01:29:04,VALID,1006.8,VALID,0,VALID,104,VALID,0,VALID,24.0837,VALID,193,VALID,0,
2012-07-05, 01:30:04,VALID,1006.8,VALID,0,VALID,104,VALID,0,VALID,24.1032,VALID,193,VALID,0.142578,
2012-07-05, 01:31:04,VALID,1006.77,VALID,0,VALID,104,VALID,0.112112,VALID,24.1032,VALID,193,VALID,0.0304688,
2012-07-05, 01:32:04,VALID,1006.78,VALID,0,VALID,104,VALID,0,VALID,24.1422,VALID,193,VALID,0.120312,
2012-07-05, 01:33:04,VALID,1006.77,VALID,0,VALID,104,VALID,0,VALID,24.1812,VALID,193,VALID,0.236328,
2012-07-05, 01:34:04,VALID,1006.73,VALID,0,VALID,104,VALID,0,VALID,24.1793,VALID,193,VALID,0.306641,
2012-07-05, 01:35:04,VALID,1006.73,VALID,0,VALID,104,VALID,0.112112,VALID,24.2786,VALID,193,VALID,0.2125,
2012-07-05, 01:36:04,VALID,1006.68,VALID,0,VALID,104,VALID,0.112112,VALID,24.2768,VALID,193,VALID,0.0984375,
2012-07-05, 01:37:04,VALID,1006.69,VALID,0,VALID,104,VALID,0.112112,VALID,24.3176,VALID,193,VALID,0.000390625,
2012-07-05, 01:38:04,VALID,1006.66,VALID,0,VALID,104,VALID,0.112112,VALID,24.3176,VALID,193,VALID,0,
2012-07-05, 01:39:04,VALID,1006.66,VALID,0,VALID,104,VALID,0.112112,VALID,24.3176,VALID,193,VALID,0,
2012-07-05, 01:40:04,VALID,1006.63,VALID,0,VALID,104,VALID,0,VALID,24.3937,VALID,174,VALID,0.457812,
2012-07-05, 01:41:04,VALID,1006.62,VALID,0,VALID,104,VALID,0.112112,VALID,24.4717,VALID,174,VALID,0.282813,
2012-07-05, 01:42:04,VALID,1006.64,VALID,0,VALID,104,VALID,0.112112,VALID,24.5106,VALID,174,VALID,0.215625,
2012-07-05, 01:43:04,VALID,1006.66,VALID,0,VALID,104,VALID,0.112112,VALID,24.5886,VALID,175,VALID,0.538672,
2012-07-05, 01:44:04,VALID,1006.65,VALID,0,VALID,104,VALID,0.112112,VALID,24.6276,VALID,175,VALID,0.255078,
2012-07-05, 01:45:04,VALID,1006.68,VALID,0,VALID,104,VALID,0,VALID,24.6684,VALID,175,VALID,0.426562,
2012-07-05, 01:46:04,VALID,1006.64,VALID,0,VALID,104,VALID,0,VALID,24.7074,VALID,175,VALID,0,
2012-07-05, 01:47:04,VALID,1006.64,VALID,0,VALID,104,VALID,0,VALID,24.725,VALID,171,VALID,0.486719,
2012-07-05, 01:48:04,VALID,1006.63,VALID,0,VALID,104,VALID,0,VALID,24.803,VALID,208,VALID,0.576172,
2012-07-05, 01:49:04,VALID,1006.61,VALID,0,VALID,104,VALID,0.112112,VALID,24.8633,VALID,194,VALID,0.5,
2012-07-05, 01:50:04,VALID,1006.6,VALID,0,VALID,104,VALID,0.112112,VALID,24.8809,VALID,194,VALID,0.365234,
2012-07-05, 01:51:04,VALID,1006.59,VALID,0,VALID,104,VALID,0.112112,VALID,24.9589,VALID,159,VALID,1.20234,
2012-07-05, 01:52:04,VALID,1006.56,VALID,0,VALID,104,VALID,0.112112,VALID,25.0193,VALID,155,VALID,0.846484,
2012-07-05, 01:53:04,VALID,1006.54,VALID,0,VALID,103.954,VALID,0.112112,VALID,25.0564,VALID,157,VALID,0.502734,
2012-07-05, 01:54:04,VALID,1006.53,VALID,0,VALID,103.413,VALID,0.112112,VALID,25.0583,VALID,157,VALID,0.365625,
2012-07-05, 01:55:04,VALID,1006.49,VALID,0,VALID,102.597,VALID,0.112112,VALID,25.0388,VALID,157,VALID,0,
2012-07-05, 01:56:04,VALID,1006.52,VALID,0,VALID,102.071,VALID,0.112112,VALID,25.0174,VALID,157,VALID,0.0398437,
2012-07-05, 01:57:04,VALID,1006.53,VALID,0,VALID,102.284,VALID,0,VALID,24.9979,VALID,157,VALID,0.304688,
2012-07-05, 01:58:04,VALID,1006.54,VALID,0,VALID,102.627,VALID,0.112112,VALID,24.9979,VALID,157,VALID,0,
2012-07-05, 01:59:04,VALID,1006.53,VALID,0,VALID,102.711,VALID,0,VALID,25.0407,VALID,157,VALID,0,
2012-07-05, 02:00:04,VALID,1006.55,VALID,0,VALID,103.054,VALID,0.112112,VALID,25.0193,VALID,157,VALID,0.358203,
2012-07-05, 02:01:04,VALID,1006.52,VALID,0,VALID,103.154,VALID,0,VALID,24.9998,VALID,151,VALID,0.567187,
2012-07-05, 02:02:04,VALID,1006.5,VALID,0,VALID,103.161,VALID,0,VALID,24.9979,VALID,151,VALID,0.407813,
2012-07-05, 02:03:04,VALID,1006.49,VALID,0,VALID,103.001,VALID,0,VALID,24.9979,VALID,151,VALID,0.282031,
2012-07-05, 02:04:04,VALID,1006.47,VALID,0,VALID,102.948,VALID,0.112112,VALID,24.9998,VALID,151,VALID,0.455469,
2012-07-05, 02:05:04,VALID,1006.45,VALID,0,VALID,103.077,VALID,0,VALID,24.9803,VALID,151,VALID,0.212891,
2012-07-05, 02:06:04,VALID,1006.44,VALID,0,VALID,103.276,VALID,0,VALID,24.9998,VALID,152,VALID,0.501562,
2012-07-05, 02:07:04,VALID,1006.41,VALID,0,VALID,103.115,VALID,0,VALID,24.9803,VALID,152,VALID,0.228516,
2012-07-05, 02:08:04,VALID,1006.38,VALID,0,VALID,103.382,VALID,0,VALID,24.9803,VALID,152,VALID,0.375391,
2012-07-05, 02:09:04,VALID,1006.37,VALID,0,VALID,103.489,VALID,0,VALID,24.9784,VALID,152,VALID,0.468359,
2012-07-05, 02:10:04,VALID,1006.35,VALID,0,VALID,103.611,VALID,0.112112,VALID,25.0193,VALID,130,VALID,0.901953,
2012-07-05, 02:11:04,VALID,1006.32,VALID,0,VALID,103.428,VALID,0,VALID,25.0388,VALID,130,VALID,0.741016,
2012-07-05, 02:12:04,VALID,1006.3,VALID,0,VALID,103.032,VALID,0,VALID,25.0193,VALID,160,VALID,0.385938,
2012-07-05, 02:13:04,VALID,1006.27,VALID,0,VALID,102.948,VALID,0,VALID,24.9979,VALID,122,VALID,0.774609,
2012-07-05, 02:14:04,VALID,1006.27,VALID,0,VALID,102.94,VALID,0.112112,VALID,24.9979,VALID,129,VALID,0.989453,
2012-07-05, 02:15:04,VALID,1006.25,VALID,0,VALID,102.864,VALID,0,VALID,25.0193,VALID,154,VALID,0.641797,
2012-07-05, 02:16:04,VALID,1006.25,VALID,0,VALID,102.871,VALID,0,VALID,25.0388,VALID,155,VALID,0.724609,
2012-07-05, 02:17:04,VALID,1006.23,VALID,0,VALID,102.643,VALID,0,VALID,25.0388,VALID,158,VALID,0.630469,
2012-07-05, 02:18:04,VALID,1006.22,VALID,0,VALID,102.437,VALID,0,VALID,25.0174,VALID,143,VALID,1.19531,
2012-07-05, 02:19:04,VALID,1006.24,VALID,0,VALID,102.307,VALID,0.112112,VALID,25.0388,VALID,162,VALID,0.436719,
2012-07-05, 02:20:04,VALID,1006.26,VALID,0,VALID,102.399,VALID,0,VALID,25.0797,VALID,161,VALID,1.0668,
2012-07-05, 02:21:04,VALID,1006.24,VALID,0,VALID,102.322,VALID,0,VALID,25.0778,VALID,158,VALID,0.909375,
2012-07-05, 02:22:04,VALID,1006.26,VALID,0,VALID,101.926,VALID,0,VALID,25.0778,VALID,152,VALID,0.558594,
2012-07-05, 02:23:04,VALID,1006.26,VALID,0,VALID,101.819,VALID,0,VALID,25.0778,VALID,148,VALID,0.467187,
2012-07-05, 02:24:04,VALID,1006.26,VALID,0,VALID,101.72,VALID,0,VALID,25.0564,VALID,166,VALID,0.700391,
2012-07-05, 02:25:04,VALID,1006.28,VALID,0,VALID,101.758,VALID,0,VALID,25.0778,VALID,133,VALID,0.987109,
2012-07-05, 02:26:04,VALID,1006.33,VALID,0,VALID,101.651,VALID,0,VALID,25.1167,VALID,167,VALID,0.880859,
2012-07-05, 02:27:04,VALID,1006.33,VALID,0,VALID,101.4,VALID,0,VALID,25.1362,VALID,164,VALID,0.498828,
2012-07-05, 02:28:04,VALID,1006.32,VALID,0,VALID,100.744,VALID,0,VALID,25.1557,VALID,178,VALID,0.730859,
2012-07-05, 02:29:04,VALID,1006.33,VALID,0,VALID,100.317,VALID,0,VALID,25.1557,VALID,175,VALID,0.808203,
2012-07-05, 02:30:04,VALID,1006.33,VALID,0,VALID,100.477,VALID,0,VALID,25.1752,VALID,158,VALID,0.808594,
2012-07-05, 02:31:04,VALID,1006.36,VALID,0,VALID,99.5847,VALID,0,VALID,25.1947,VALID,180,VALID,0.889844,
2012-07-05, 02:32:04,VALID,1006.39,VALID,0,VALID,99.3636,VALID,0,VALID,25.1966,VALID,175,VALID,0.579687,
2012-07-05, 02:33:04,VALID,1006.39,VALID,0,VALID,99.8974,VALID,0,VALID,25.1752,VALID,139,VALID,0.898047,
2012-07-05, 02:34:04,VALID,1006.43,VALID,0,VALID,99.5008,VALID,0,VALID,25.1752,VALID,163,VALID,0.616797,
2012-07-05, 02:35:04,VALID,1006.43,VALID,0,VALID,99.9355,VALID,0,VALID,25.1752,VALID,169,VALID,0.277734,
2012-07-05, 02:36:04,VALID,1006.44,VALID,0,VALID,100.34,VALID,0,VALID,25.1752,VALID,169,VALID,0.426562,
2012-07-05, 02:37:04,VALID,1006.42,VALID,0,VALID,100.324,VALID,0,VALID,25.1752,VALID,164,VALID,0.685156,
2012-07-05, 02:38:04,VALID,1006.42,VALID,0,VALID,100.202,VALID,0,VALID,25.1947,VALID,157,VALID,0.305469,
2012-07-05, 02:39:04,VALID,1006.41,VALID,0,VALID,100.134,VALID,0,VALID,25.1947,VALID,157,VALID,0.446875,
2012-07-05, 02:40:04,VALID,1006.41,VALID,0,VALID,100.248,VALID,0,VALID,25.2142,VALID,186,VALID,0.757813,
2012-07-05, 02:41:04,VALID,1006.37,VALID,0,VALID,99.9202,VALID,0,VALID,25.2337,VALID,147,VALID,0.861328,
2012-07-05, 02:42:04,VALID,1006.38,VALID,0,VALID,99.2263,VALID,0,VALID,25.2532,VALID,170,VALID,0.611328,
2012-07-05, 02:43:04,VALID,1006.34,VALID,0,VALID,98.6391,VALID,0,VALID,25.2337,VALID,165,VALID,0.974609,
2012-07-05, 02:44:04,VALID,1006.33,VALID,0,VALID,99.0814,VALID,0.112112,VALID,25.2337,VALID,169,VALID,0.618359,
2012-07-05, 02:45:04,VALID,1006.31,VALID,0,VALID,99.2187,VALID,0,VALID,25.2142,VALID,169,VALID,0.146875,
2012-07-05, 02:46:04,VALID,1006.29,VALID,0,VALID,99.8821,VALID,0,VALID,25.1947,VALID,169,VALID,0.610937,
2012-07-05, 02:47:04,VALID,1006.28,VALID,0,VALID,100.363,VALID,0,VALID,25.1947,VALID,139,VALID,0.75625,
2012-07-05, 02:48:04,VALID,1006.3,VALID,0,VALID,100.645,VALID,0,VALID,25.2142,VALID,156,VALID,1.00273,
2012-07-05, 02:49:04,VALID,1006.28,VALID,0,VALID,100.507,VALID,0,VALID,25.2142,VALID,137,VALID,0.577344,
2012-07-05, 02:50:04,VALID,1006.27,VALID,0,VALID,100.324,VALID,0,VALID,25.1947,VALID,137,VALID,0.475,
2012-07-05, 02:51:04,VALID,1006.26,VALID,0,VALID,100.568,VALID,0.112112,VALID,25.1752,VALID,137,VALID,0.377734,
2012-07-05, 02:52:04,VALID,1006.27,VALID,0,VALID,100.835,VALID,0,VALID,25.1362,VALID,137,VALID,0.474609,
2012-07-05, 02:53:04,VALID,1006.27,VALID,0,VALID,101.14,VALID,0,VALID,25.1167,VALID,129,VALID,0.526953,
2012-07-05, 02:54:04,VALID,1006.26,VALID,0,VALID,101.217,VALID,0,VALID,25.0973,VALID,129,VALID,0.335547,
2012-07-05, 02:55:04,VALID,1006.24,VALID,0,VALID,101.24,VALID,0,VALID,25.0583,VALID,129,VALID,0.317187,
2012-07-05, 02:56:04,VALID,1006.25,VALID,0,VALID,101.514,VALID,0,VALID,25.0193,VALID,129,VALID,0.191406,
2012-07-05, 02:57:04,VALID,1006.27,VALID,0,VALID,101.819,VALID,0,VALID,25.0388,VALID,130,VALID,0.502734,
2012-07-05, 02:58:04,VALID,1006.3,VALID,0,VALID,101.85,VALID,0,VALID,25.0193,VALID,131,VALID,0.374219,
2012-07-05, 02:59:04,VALID,1006.27,VALID,0,VALID,101.88,VALID,0,VALID,24.9979,VALID,152,VALID,0.410547,
2012-07-05, 03:00:04,VALID,1006.27,VALID,0,VALID,101.865,VALID,0,VALID,24.9998,VALID,145,VALID,0.425,
2012-07-05, 03:01:04,VALID,1006.3,VALID,0,VALID,101.895,VALID,0,VALID,24.9608,VALID,145,VALID,0.285547,
2012-07-05, 03:02:04,VALID,1006.26,VALID,0,VALID,102.078,VALID,0,VALID,24.9608,VALID,182,VALID,0.575,
2012-07-05, 03:03:04,VALID,1006.24,VALID,0,VALID,102.109,VALID,0,VALID,24.9413,VALID,182,VALID,0.617969,
2012-07-05, 03:04:04,VALID,1006.22,VALID,0,VALID,102.307,VALID,0,VALID,24.9218,VALID,182,VALID,0.531641,
2012-07-05, 03:05:04,VALID,1006.21,VALID,0,VALID,102.338,VALID,0,VALID,24.9218,VALID,181,VALID,0.31875,
2012-07-05, 03:06:04,VALID,1006.15,VALID,0,VALID,102.376,VALID,0,VALID,24.8828,VALID,181,VALID,0.40625,
2012-07-05, 03:07:04,VALID,1006.13,VALID,0,VALID,102.467,VALID,0,VALID,24.8633,VALID,177,VALID,0.883594,
2012-07-05, 03:08:04,VALID,1006.14,VALID,0,VALID,102.589,VALID,0,VALID,24.9023,VALID,169,VALID,0.696875,
2012-07-05, 03:09:04,VALID,1006.11,VALID,0,VALID,102.566,VALID,0,VALID,24.9413,VALID,165,VALID,1.12422,
2012-07-05, 03:10:04,VALID,1006.09,VALID,0,VALID,102.338,VALID,0,VALID,24.9413,VALID,170,VALID,0.633203,
2012-07-05, 03:11:04,VALID,1006.08,VALID,0,VALID,102.292,VALID,0,VALID,24.9413,VALID,170,VALID,0.592578,
2012-07-05, 03:12:04,VALID,1006.12,VALID,0,VALID,102.307,VALID,0,VALID,24.9608,VALID,165,VALID,0.795313,
2012-07-05, 03:13:04,VALID,1006.1,VALID,0,VALID,102.223,VALID,0,VALID,24.9608,VALID,170,VALID,1.34883,
2012-07-05, 03:14:04,VALID,1006.08,VALID,0,VALID,102.124,VALID,0,VALID,24.9608,VALID,156,VALID,0.996484,
2012-07-05, 03:15:04,VALID,1006.07,VALID,0,VALID,102.17,VALID,0,VALID,24.9608,VALID,154,VALID,0.883203,
2012-07-05, 03:16:04,VALID,1006.06,VALID,0,VALID,102.071,VALID,0,VALID,24.9803,VALID,174,VALID,0.608203,
2012-07-05, 03:17:04,VALID,1006.03,VALID,0,VALID,101.972,VALID,0,VALID,24.9822,VALID,174,VALID,0.345703,
2012-07-05, 03:18:04,VALID,1006.03,VALID,0,VALID,102.17,VALID,0,VALID,24.9608,VALID,148,VALID,1.15078,
2012-07-05, 03:19:04,VALID,1006.03,VALID,0,VALID,102.17,VALID,0,VALID,24.9413,VALID,142,VALID,0.704297,
2012-07-05, 03:20:04,VALID,1006.01,VALID,0,VALID,102.162,VALID,0,VALID,24.9218,VALID,162,VALID,0.915625,
2012-07-05, 03:21:04,VALID,1006.04,VALID,0,VALID,102.307,VALID,0,VALID,24.9218,VALID,157,VALID,1.12773,
2012-07-05, 03:22:04,VALID,1006.04,VALID,0,VALID,102.338,VALID,0,VALID,24.9023,VALID,165,VALID,1.0375,
2012-07-05, 03:23:04,VALID,1006.03,VALID,0,VALID,102.482,VALID,0,VALID,24.9218,VALID,155,VALID,0.999219,
2012-07-05, 03:24:04,VALID,1006.08,VALID,0,VALID,102.338,VALID,0,VALID,24.9218,VALID,161,VALID,0.864062,
2012-07-05, 03:25:04,VALID,1006.06,VALID,0,VALID,102.36,VALID,0,VALID,24.9023,VALID,132,VALID,1.28047,
2012-07-05, 03:26:04,VALID,1006.09,VALID,0,VALID,102.307,VALID,0,VALID,24.8828,VALID,168,VALID,0.5375,
2012-07-05, 03:27:04,VALID,1006.11,VALID,0,VALID,102.399,VALID,0,VALID,24.8828,VALID,157,VALID,0.851172,
2012-07-05, 03:28:04,VALID,1006.13,VALID,0,VALID,102.513,VALID,0,VALID,24.9042,VALID,158,VALID,0.594922,
2012-07-05, 03:29:04,VALID,1006.1,VALID,0,VALID,102.566,VALID,0,VALID,24.8828,VALID,150,VALID,0.916406,
2012-07-05, 03:30:04,VALID,1006.11,VALID,0,VALID,102.551,VALID,0,VALID,24.8828,VALID,152,VALID,0.830078,
2012-07-05, 03:31:04,VALID,1006.14,VALID,0,VALID,102.521,VALID,0,VALID,24.8633,VALID,175,VALID,0.651953,
2012-07-05, 03:32:04,VALID,1006.14,VALID,0,VALID,102.574,VALID,0,VALID,24.8438,VALID,169,VALID,0.732813,
2012-07-05, 03:33:04,VALID,1006.16,VALID,0,VALID,102.696,VALID,0,VALID,24.8244,VALID,165,VALID,0.627734,
2012-07-05, 03:34:04,VALID,1006.18,VALID,0,VALID,102.879,VALID,0,VALID,24.8244,VALID,164,VALID,0.708203,
2012-07-05, 03:35:04,VALID,1006.21,VALID,0,VALID,102.902,VALID,0,VALID,24.8049,VALID,167,VALID,0.533594,
2012-07-05, 03:36:04,VALID,1006.19,VALID,0,VALID,102.91,VALID,0,VALID,24.7854,VALID,167,VALID,0.407031,
2012-07-05, 03:37:04,VALID,1006.19,VALID,0,VALID,103.07,VALID,0,VALID,24.7854,VALID,158,VALID,0.644531,
2012-07-05, 03:38:04,VALID,1006.17,VALID,0,VALID,103.184,VALID,0,VALID,24.7854,VALID,152,VALID,0.386719,
2012-07-05, 03:39:04,VALID,1006.17,VALID,0,VALID,103.222,VALID,0,VALID,24.7854,VALID,169,VALID,0.635156,
2012-07-05, 03:40:04,VALID,1006.17,VALID,0,VALID,103.215,VALID,0,VALID,24.7659,VALID,170,VALID,0.444531,
2012-07-05, 03:41:04,VALID,1006.17,VALID,0,VALID,103.245,VALID,0,VALID,24.7659,VALID,170,VALID,0.330469,
2012-07-05, 03:42:04,VALID,1006.14,VALID,0,VALID,103.306,VALID,0,VALID,24.7659,VALID,170,VALID,0.367969,
2012-07-05, 03:43:04,VALID,1006.18,VALID,0,VALID,103.367,VALID,0,VALID,24.7464,VALID,171,VALID,0.351172,
2012-07-05, 03:44:04,VALID,1006.16,VALID,0,VALID,103.459,VALID,0,VALID,24.7659,VALID,199,VALID,0.384766,
2012-07-05, 03:45:04,VALID,1006.17,VALID,0,VALID,103.481,VALID,0,VALID,24.7464,VALID,199,VALID,0.439453,
2012-07-05, 03:46:04,VALID,1006.18,VALID,0,VALID,103.42,VALID,0,VALID,24.7659,VALID,199,VALID,0.389453,
2012-07-05, 03:47:04,VALID,1006.2,VALID,0,VALID,103.466,VALID,0,VALID,24.7659,VALID,197,VALID,0.383203,
2012-07-05, 03:48:04,VALID,1006.2,VALID,0,VALID,103.428,VALID,0,VALID,24.7464,VALID,197,VALID,0.0847656,